Temp
51 45 44 50 54 54 54 53 53 60 65 54 54 56 61 67 68 67 68 69 70 72 77 81 81 79 76 77 76 75 71 68 66 62 60 60 59 61 63 64 63 62 62 61
47 40 53 57 56 53 51 49 50 56 61 57 53 52 60 64 66 67 67 68 70 72 75 76 79 79 74 74 73 73 71 67 64 62 61 61 61 61 62 62 61 62 60 58
45 51 56 51 51 48 50 48 50 49 56 58 51 48 54 63 67 67 68 70 72 71 72 75 77 77 74 71 70 70 70 66 64 63 62 62 61 60 58 58 57 58 57 57
48 55 51 51 47 50 41 53 51 48 46 40 54 40 54 62 65 69 69 70 70 71 73 74 74 75 73 71 71 70 69 65 64 62 60 59 56 54 56 56 55 54 57 57
44 47 45 43 48 51 44 51 50 48 44 43 46 39 49 61 60 65 69 70 71 72 73 73 74 73 73 69 68 67 67 65 63 61 60 59 56 58 58 56 53 54 55 56
43 53 47 49 52 52 52 46 43 44 42 31 43 44 45 54 60 66 72 71 70 70 69 69 69 69 71 70 67 65 64 63 62 60 60 59 57 57 55 53 52 53 54 54
39 42 48 46 43 45 47 40 30 26 26 27 47 43 48 60 63 64 66 68 68 68 66 66 66 66 64 66 65 64 63 62 62 60 60 59 59 58 57 54 54 54 53 53
25 29 44 48 43 42 40 41 34 24 28 34 46 37 49 62 65 67 64 62 62 64 63 59 59 60 61 62 63 63 61 62 62 60 60 60 60 60 59 57 57 56 55 55
20 28 43 43 46 47 41 33 46 34 37 31 41 45 54 57 58 61 57 59 57 55 54 54 54 55 57 59 60 61 61 61 62 60 60 60 61 60 58 58 58 58 58 56
25 18 37 40 42 44 42 45 33 35 24 23 34 40 45 53 55 50 50 50 50 50 49 49 50 51 54 55 58 60 62 61 61 60 60 60 60 61 60 59 58 57 56 55
25 21 27 35 32 36 38 34 38 37 36 30 29 39 46 46 47 45 44 45 45 45 45 45 46 48 49 52 54 56 58 59 59 58 58 58 58 60 59 58 58 57 56 54
26 21 17 23 38 39 35 37 39 30 30 37 36 39 47 46 45 45 42 43 44 44 44 44 44 44 44 45 48 49 52 55 56 57 57 57 58 58 57 57 57 56 55 54
23 19 12 19 31 29 24 28 33 35 37 29 28 36 47 44 43 43 41 42 41 41 41 41 41 40 41 42 43 45 45 46 50 54 55 55 56 56 56 56 56 56 55 53
31 20 15 10 16 22 17 23 27 26 22 30 33 39 44 43 41 41 40 40 39 39 38 38 37 37 38 38 40 41 42 43 47 50 52 52 54 55 55 56 55 54 55 52
26 13 17 20 23 23 22 22 24 23 27 25 33 38 47 49 40 37 39 38 36 35 34 34 33 33 33 34 37 38 38 39 42 44 46 48 51 53 54 54 54 53 53 53
25 14 18 12 22 24 21 26 26 28 30 28 34 37 37 36 36 33 33 33 31 31 31 32 32 32 31 30 32 34 34 35 37 38 38 39 42 46 48 50 50 50 49 49
20 17 14 9 22 22 15 23 23 25 22 22 23 26 32 33 29 29 30 29 28 28 29 28 29 30 29 29 31 30 31 32 32 32 33 33 35 36 37 40 45 44 45 47
19 17 17 12 14 8 21 26 24 22 22 23 23 24 26 26 26 26 28 27 26 26 26 26 28 28 27 27 28 31 28 27 27 27 28 29 30 31 33 34 35 37 39 36
27 20 13 9 10 18 24 22 20 19 18 22 22 23 24 25 25 22 26 26 26 26 26 26 27 26 26 24 26 27 24 24 23 22 24 25 27 29 31 31 32 32 32 33
26 24 16 14 5 5 16 24 30 27 15 23 23 22 22 25 20 19 24 24 24 23 24 25 26 26 24 22 24 24 21 19 17 19 20 23 25 27 29 31 32 33 32 32
14 16 12 12 9 15 22 28 31 14 14 24 24 23 22 19 20 22 24 23 23 24 24 25 26 23 22 21 22 20 19 15 17 17 19 21 23 25 28 29 32 33 32 32
14 12 12 13 8 6 29 27 18 22 26 26 25 23 22 23 23 22 22 22 22 21 22 22 22 21 20 18 18 17 15 16 15 15 17 18 20 24 26 27 30 32 33 32
13 19 15 16 16 26 30 26 28 25 24 24 24 24 23 23 23 24 23 22 21 21 21 20 19 19 17 16 15 14 14 14 13 13 14 16 19 21 23 24 27 30 32 33
22 26 18 18 22 25 27 26 24 23 22 22 22 22 22 20 21 21 22 22 21 21 19 19 17 16 15 16 14 13 13 11 10 11 13 15 16 18 20 23 26 26 28 30
24 25 19 19 24 28 27 23 23 23 21 19 19 19 18 18 19 19 19 19 19 19 19 17 15 15 15 15 13 12 11 9 9 10 12 15 16 17 18 21 24 24 27 29
26 21 18 17 27 25 27 24 20 19 20 18 16 16 18 17 16 17 16 17 16 15 15 13 13 13 13 13 12 11 9 7 6 7 11 12 13 15 17 19 21 25 28 29
MSLP
1008.29 1007.81 1004.72 1004.01 1003.55 1002.75 1002.46 1001.55 1000.13 999.06 999.55 1000.57 1000.01 998.22 997.53 997.41 996.54 995.99 995.84 995.85 995.55 995.13 995.15 995.03 995.34 996.14 997.13 997.80 998.68 999.30 1000.23 1001.71 1003.13 1004.15 1004.79 1005.56 1006.24 1006.93 1007.66 1008.46 1008.98 1009.68 1010.38 1011.14
1006.93 1004.81 1001.36 1002.93 1002.71 1002.37 1001.95 1000.95 999.28 999.42 999.79 1000.03 999.93 997.22 996.72 996.46 995.37 994.88 994.52 994.40 994.09 993.88 993.82 993.89 993.97 994.47 995.63 996.55 997.48 998.62 999.34 1000.45 1001.50 1002.51 1003.45 1004.37 1005.32 1006.39 1007.11 1007.99 1008.64 1009.10 1009.76 1010.59
1004.03 1000.59 1001.79 1002.50 1001.80 1001.72 1000.73 1000.29 998.99 999.40 999.91 999.62 999.84 996.86 994.52 994.30 993.43 992.92 992.77 992.61 992.67 992.52 992.32 992.37 992.84 993.35 994.39 995.44 996.27 997.14 998.15 999.59 1000.66 1001.67 1002.95 1004.10 1005.04 1006.19 1007.02 1007.45 1007.96 1008.85 1009.58 1010.41
1003.83 1000.20 1002.11 1001.21 1000.93 1000.92 1000.48 999.81 1000.26 1000.33 1000.60 999.21 999.14 995.44 992.76 992.61 991.58 990.95 990.89 991.09 991.04 991.22 991.61 991.98 992.34 992.59 993.26 994.19 995.39 996.54 997.49 998.60 999.72 1000.84 1001.83 1002.09 1002.73 1004.14 1004.92 1005.85 1007.11 1007.68 1008.97 1009.79
1001.75 1001.46 1001.54 1001.15 998.86 1001.00 999.78 1001.09 1000.69 1000.66 1000.45 1000.20 998.86 997.88 989.41 991.52 990.64 990.15 990.01 990.07 990.29 990.62 990.93 991.36 991.81 992.48 993.02 994.08 994.86 995.86 996.90 997.87 998.74 999.65 1000.45 1001.28 1002.26 1003.22 1004.29 1005.59 1006.68 1007.38 1008.39 1009.44
1003.36 1002.71 1002.50 1000.95 1000.24 1000.49 1000.80 1001.55 1001.66 1001.47 1000.86 999.43 996.29 996.83 989.27 991.17 990.14 989.32 988.88 989.53 990.06 990.75 991.54 992.15 992.55 993.01 993.13 993.86 994.68 995.55 996.32 997.13 998.23 999.11 999.78 1000.36 1001.25 1002.29 1003.59 1004.96 1006.16 1007.02 1007.93 1008.90
1004.38 1002.80 1002.62 1002.77 1001.67 1001.29 1001.04 1001.59 1001.35 1001.33 1000.41 997.59 995.69 995.50 991.08 989.56 989.75 990.14 990.19 990.49 991.28 991.86 992.49 992.84 993.20 993.56 993.99 993.93 994.49 995.32 996.02 996.72 997.60 998.58 999.36 1000.02 1000.69 1001.51 1002.29 1003.43 1004.65 1005.88 1006.93 1008.02
1007.13 1003.28 1001.48 1001.55 1001.27 1000.46 1000.84 1000.34 998.94 997.97 997.31 995.83 994.86 993.21 988.88 990.30 990.41 990.45 991.22 992.01 992.49 992.94 993.70 994.49 994.72 994.70 994.64 994.74 994.88 995.31 995.91 996.46 997.17 998.01 998.75 999.59 1000.34 1000.83 1001.58 1002.61 1003.49 1004.52 1005.54 1006.64
1011.16 1006.24 1003.46 1003.20 1002.16 1001.61 1000.52 1000.42 997.97 998.42 997.15 996.55 994.10 992.87 991.65 991.13 991.12 991.52 992.69 993.22 994.17 995.22 995.76 995.95 996.28 995.97 995.87 995.62 995.58 995.74 996.04 996.48 996.98 997.83 998.63 999.25 999.96 1000.49 1001.02 1001.76 1002.75 1003.74 1004.63 1005.81
1013.70 1009.56 1005.45 1003.79 1003.31 1001.82 1000.66 1000.66 1000.02 999.50 997.78 996.06 994.41 993.05 991.66 991.20 991.86 993.39 994.49 995.27 996.05 996.91 997.50 997.63 997.65 997.53 997.25 996.95 996.51 996.26 996.34 996.64 997.12 997.86 998.48 998.95 999.48 1000.09 1000.68 1001.32 1001.99 1002.83 1003.86 1005.06
1015.32 1013.14 1008.31 1005.95 1003.95 1002.25 1001.71 1001.28 1000.13 999.40 998.00 995.78 994.65 993.15 993.59 993.85 994.45 995.51 996.73 997.65 998.40 998.94 999.28 999.27 999.29 999.07 998.70 998.28 997.82 997.45 997.22 997.26 997.53 998.16 998.70 999.03 999.44 999.90 1000.48 1001.02 1001.66 1002.33 1003.34 1004.44
1016.26 1014.31 1011.11 1007.94 1005.32 1004.12 1003.29 1002.37 1001.46 1000.15 998.41 996.75 995.63 994.38 995.12 995.60 996.50 997.49 998.59 999.57 1000.14 1000.46 1000.63 1000.63 1000.56 1000.23 1000.13 1000.01 999.57 999.31 998.79 998.49 998.53 998.69 998.94 999.11 999.40 999.85 1000.46 1000.96 1001.49 1002.06 1002.80 1003.78
1017.21 1015.59 1012.93 1008.36 1005.91 1006.90 1006.95 1005.83 1004.24 1002.21 1000.21 998.41 997.11 995.65 996.08 997.05 998.09 999.22 1000.03 1000.76 1001.50 1001.98 1001.90 1002.04 1001.96 1001.77 1001.67 1001.56 1001.15 1000.85 1000.66 1000.32 999.94 999.37 999.44 999.50 999.68 999.88 1000.37 1000.97 1001.41 1001.97 1002.63 1003.43
1017.47 1016.98 1016.14 1014.07 1011.63 1011.49 1009.68 1007.79 1006.45 1005.14 1002.97 1000.32 998.33 996.81 996.82 997.88 999.01 1000.35 1001.25 1001.92 1002.63 1003.22 1003.45 1003.55 1003.53 1003.62 1003.32 1003.00 1002.61 1002.27 1001.93 1001.57 1000.95 1000.41 1000.21 1000.08 1000.11 1000.33 1000.60 1000.98 1001.39 1001.88 1002.31 1003.12
1017.97 1016.99 1016.22 1014.97 1013.14 1011.84 1010.10 1008.66 1007.28 1006.08 1004.11 1002.74 1000.05 998.90 997.87 998.07 1000.48 1001.99 1002.76 1003.20 1003.76 1004.59 1004.85 1005.06 1005.44 1005.34 1004.98 1004.64 1004.09 1003.76 1003.42 1002.99 1002.43 1001.91 1001.58 1001.31 1001.18 1001.07 1001.15 1001.19 1001.39 1001.83 1002.34 1002.71
1017.93 1016.58 1015.86 1014.88 1013.30 1011.29 1009.64 1008.36 1007.36 1006.01 1004.77 1003.60 1002.06 1000.64 1001.87 1002.43 1003.41 1004.33 1004.86 1005.06 1005.32 1006.05 1006.54 1006.64 1006.53 1006.56 1006.38 1006.29 1005.86 1005.40 1005.08 1004.68 1004.18 1003.73 1003.45 1003.36 1002.96 1002.28 1002.12 1002.01 1002.04 1002.09 1002.44 1002.75
1017.17 1016.43 1015.43 1013.42 1012.17 1010.71 1009.47 1008.03 1007.70 1007.04 1007.13 1006.39 1004.84 1005.13 1004.32 1004.47 1005.55 1006.43 1007.33 1007.45 1007.27 1007.67 1008.14 1008.40 1008.33 1008.15 1007.88 1007.76 1007.35 1006.88 1006.68 1006.43 1005.78 1005.41 1005.07 1004.81 1004.53 1004.10 1003.74 1003.26 1002.76 1002.64 1002.75 1003.01
1016.32 1016.03 1015.14 1013.30 1012.42 1010.49 1009.68 1009.77 1009.42 1008.95 1008.72 1008.64 1008.14 1007.97 1007.31 1007.34 1008.28 1009.05 1009.62 1009.48 1009.25 1009.45 1009.62 1009.81 1009.78 1009.57 1009.32 1009.14 1008.64 1008.19 1007.95 1007.73 1007.24 1006.78 1006.49 1006.15 1005.84 1005.33 1004.70 1004.20 1003.87 1003.57 1003.44 1003.44
1016.01 1015.81 1014.93 1013.81 1012.81 1010.90 1009.70 1010.43 1010.17 1009.70 1009.86 1010.17 1009.95 1009.72 1009.42 1009.26 1009.79 1010.55 1010.96 1011.10 1011.06 1010.88 1010.93 1011.00 1010.99 1010.85 1010.46 1010.19 1009.92 1009.45 1009.25 1008.97 1008.55 1008.14 1007.74 1007.36 1006.92 1006.43 1005.55 1005.00 1004.67 1004.33 1004.11 1004.07
1016.05 1015.70 1015.36 1014.03 1013.18 1011.32 1011.44 1011.08 1010.11 1009.85 1010.09 1010.93 1011.14 1011.03 1010.67 1010.06 1010.39 1011.58 1011.95 1012.19 1012.33 1012.47 1012.40 1011.98 1011.62 1011.34 1011.26 1011.22 1010.92 1010.48 1010.32 1010.18 1010.03 1009.72 1009.20 1008.44 1007.80 1007.65 1006.56 1005.75 1005.19 1004.85 1004.49 1004.30
1016.27 1015.39 1014.82 1014.08 1013.44 1012.24 1011.93 1011.18 1010.09 1010.35 1011.80 1011.66 1011.90 1012.01 1011.97 1012.01 1012.70 1012.95 1012.96 1013.07 1013.51 1013.43 1013.33 1012.93 1012.39 1012.11 1012.23 1012.21 1012.00 1011.67 1011.49 1011.42 1011.62 1011.17 1010.24 1009.36 1008.81 1008.32 1007.45 1006.50 1005.73 1005.16 1004.66 1004.41
1016.07 1015.29 1014.55 1013.96 1013.27 1011.95 1011.24 1011.39 1012.22 1012.53 1012.25 1012.38 1012.65 1012.99 1013.10 1013.27 1013.44 1013.58 1013.72 1013.92 1013.95 1013.95 1013.75 1013.57 1013.24 1013.20 1013.33 1013.38 1013.09 1012.56 1012.29 1012.54 1012.47 1011.83 1010.78 1010.39 1009.70 1009.10 1008.24 1007.06 1006.17 1005.57 1005.01 1004.51
1015.34 1014.89 1014.43 1014.34 1012.93 1012.02 1012.17 1012.68 1012.92 1013.43 1013.41 1013.14 1013.30 1013.63 1013.94 1013.84 1013.81 1013.85 1014.08 1014.29 1014.41 1014.36 1014.17 1013.96 1013.87 1013.80 1013.96 1014.09 1014.20 1013.82 1013.45 1013.23 1012.79 1012.03 1011.44 1011.02 1010.58 1009.89 1009.13 1007.95 1006.73 1005.91 1005.49 1004.95
1014.64 1014.16 1013.87 1013.58 1012.65 1012.29 1012.30 1012.93 1013.61 1013.98 1014.24 1014.40 1014.47 1014.40 1014.44 1014.61 1014.49 1014.50 1014.50 1014.56 1014.56 1014.51 1014.53 1014.58 1014.46 1014.42 1014.44 1014.54 1014.80 1014.90 1014.62 1014.22 1013.46 1012.81 1012.02 1011.41 1010.76 1010.23 1009.46 1008.67 1007.48 1006.78 1006.29 1005.84
1013.58 1013.43 1012.99 1012.54 1012.22 1012.06 1012.22 1013.07 1013.70 1014.27 1014.90 1015.23 1015.44 1015.47 1015.34 1015.27 1015.15 1015.10 1015.08 1015.05 1015.04 1015.18 1015.13 1015.22 1015.11 1014.91 1014.92 1015.06 1015.21 1015.14 1014.98 1014.70 1014.10 1013.54 1012.73 1011.94 1011.42 1010.56 1009.74 1009.04 1008.19 1007.49 1007.26 1006.89
1012.60 1012.16 1012.14 1011.44 1011.64 1012.25 1012.25 1013.19 1014.34 1014.82 1015.18 1015.84 1016.15 1016.21 1016.19 1016.22 1016.02 1015.86 1015.72 1015.68 1015.73 1015.62 1015.55 1015.61 1015.61 1015.27 1015.14 1015.15 1015.24 1015.23 1015.53 1015.23 1014.83 1013.96 1013.16 1012.62 1012.03 1011.18 1010.29 1009.10 1007.81 1007.43 1006.84 1006.46
Wind_Speed
16 10 23 27 27 29 27 29 32 28 14 7 19 30 28 24 25 23 22 22 23 23 21 21 20 19 19 19 20 22 22 22 17 13 13 12 12 10 9 9 13 14 11 12
13 25 35 25 24 26 28 30 33 25 21 16 18 34 29 27 27 27 25 25 26 26 24 23 23 19 20 21 21 20 22 23 20 15 14 12 11 9 9 9 11 13 13 12
30 35 21 23 24 26 30 30 29 27 18 17 16 33 34 28 31 30 29 28 25 26 26 24 20 19 18 20 22 23 23 22 21 19 13 11 10 8 9 10 9 9 10 12
26 40 26 22 28 27 26 27 24 21 12 17 9 21 25 19 22 18 17 21 22 22 21 19 17 16 18 19 18 19 21 22 21 21 18 20 18 14 11 13 10 12 15 14
25 21 19 26 36 19 23 8 17 17 19 19 23 11 18 3 10 11 15 18 19 16 15 16 15 13 13 15 15 17 19 20 22 23 21 17 17 11 8 9 14 12 12 12
35 16 8 20 17 20 8 10 2 5 10 14 31 19 33 18 24 20 11 6 7 2 4 5 6 8 11 11 13 14 19 20 20 21 22 22 21 17 13 13 12 11 10 10
20 30 26 8 10 6 19 13 8 7 7 14 20 18 30 3 5 14 11 4 3 2 4 6 6 4 6 9 11 12 16 18 19 20 21 20 20 19 18 19 15 16 12 11
9 11 24 22 26 14 22 22 11 15 15 17 16 12 26 16 15 15 2 6 5 5 5 7 8 7 5 4 7 12 13 15 17 19 20 18 18 13 13 16 13 13 12 13
10 11 13 13 12 21 16 21 29 13 11 4 8 15 20 16 15 5 6 2 8 8 9 10 11 11 10 5 4 9 11 12 14 15 15 16 16 17 14 16 15 13 14 12
9 20 15 7 5 15 20 6 14 10 9 14 12 20 14 7 9 6 6 8 10 10 11 12 12 13 11 10 6 2 6 9 10 11 12 13 15 16 14 14 16 16 14 15
14 7 16 8 5 13 10 12 8 5 12 11 10 9 6 6 8 7 8 9 9 10 11 11 12 13 14 14 12 9 4 3 7 8 9 11 12 13 13 12 14 14 14 15
12 9 13 26 24 5 5 11 19 9 10 11 15 11 6 9 10 9 9 9 10 11 11 12 13 14 15 15 14 14 12 7 2 5 8 9 10 11 12 12 13 13 15 15
7 9 14 18 8 17 9 22 21 19 17 12 10 13 8 9 10 9 9 10 11 12 13 13 14 15 15 14 14 14 13 12 10 5 5 6 8 9 11 10 11 12 13 13
12 8 12 13 20 18 21 19 22 15 12 16 19 22 10 9 9 8 8 10 11 13 14 14 15 15 15 15 15 15 15 14 11 7 3 3 6 7 8 9 10 11 12 13
11 14 17 19 26 25 23 21 18 16 15 18 23 23 23 8 9 8 8 9 12 14 15 15 15 14 16 16 16 16 15 15 13 13 12 10 5 4 6 7 8 8 10 11
14 15 15 22 23 24 23 19 21 18 18 23 25 24 12 10 8 9 10 10 13 14 15 16 16 16 16 17 16 15 16 15 14 13 13 12 12 8 5 3 4 7 7 8
17 12 14 21 19 18 13 8 7 7 11 8 7 13 15 7 11 13 10 11 13 13 14 15 15 15 15 16 15 15 15 14 14 14 14 14 13 11 9 9 5 3 6 7
10 10 8 12 12 14 6 12 7 5 8 11 10 12 11 12 14 13 12 11 12 12 13 13 12 13 15 15 15 13 14 14 14 15 14 14 13 12 10 8 7 5 2 1
7 9 9 6 11 18 6 12 8 8 4 9 10 12 11 11 11 12 11 12 12 12 12 11 11 12 13 15 15 14 15 15 15 16 16 14 14 13 12 11 9 6 3 3
13 10 7 10 10 10 10 17 14 8 2 7 8 10 13 4 2 4 9 9 9 10 11 12 12 11 13 14 13 13 14 15 15 16 15 14 12 13 12 12 11 8 5 4
9 9 7 9 9 10 11 21 16 6 8 5 6 8 10 7 5 6 7 7 7 7 7 9 10 11 12 13 13 12 12 14 15 13 13 13 13 13 11 11 10 10 7 6
13 9 10 7 12 9 19 17 11 4 10 4 4 5 5 5 5 5 6 7 7 8 9 10 9 9 10 11 12 12 13 13 12 12 12 13 12 11 11 11 10 10 7 5
13 9 8 8 10 14 15 9 5 7 8 3 4 4 6 6 6 7 8 8 7 7 8 8 9 9 6 8 10 12 13 13 13 12 11 11 12 11 12 12 10 8 9 6
10 11 8 11 10 11 10 3 4 4 4 4 4 4 5 6 7 7 8 8 8 8 9 9 9 9 7 7 9 9 11 11 12 13 13 11 10 12 9 8 7 7 8 8
13 14 13 15 16 16 9 6 5 5 2 2 3 5 6 7 9 9 9 8 9 9 9 8 9 9 9 8 7 8 10 11 11 11 11 10 9 10 10 8 7 7 7 9
13 18 14 14 14 8 13 3 3 7 6 4 5 6 6 7 9 10 9 9 10 11 11 11 12 11 11 11 11 11 10 11 11 12 9 9 9 9 9 9 9 10 13 17
Wind_Direction
195 213 222 219 218 237 249 261 270 271 274 268 262 269 264 263 261 258 252 250 249 250 249 246 230 220 221 214 206 201 188 186 181 183 180 178 182 182 179 182 177 175 174 172
194 226 232 232 235 233 240 250 257 267 260 250 265 271 273 266 264 257 254 250 249 247 242 243 235 222 207 211 205 201 196 188 186 181 182 179 174 181 175 174 180 175 178 173
225 242 235 233 231 233 232 239 249 252 258 259 261 276 274 263 247 245 249 252 253 248 245 241 240 222 206 207 201 202 196 189 187 183 174 173 165 157 178 183 173 175 164 173
246 252 256 242 234 225 239 233 252 261 264 250 223 277 271 281 276 259 247 246 248 249 245 248 246 232 207 210 206 203 195 190 185 181 181 181 176 174 188 180 173 166 177 180
234 252 245 234 234 209 238 267 242 243 235 253 251 250 281 293 268 253 253 243 246 255 250 244 242 233 214 204 206 199 199 192 186 185 186 184 183 183 167 172 168 171 175 178
267 245 288 265 258 225 227 222 142 247 233 234 243 231 277 257 257 267 289 288 304 10 312 266 269 279 245 211 202 198 198 196 190 189 191 190 184 176 167 168 170 173 168 171
273 250 248 241 239 247 204 191 205 212 208 236 246 218 244 134 209 298 284 274 194 311 321 342 326 292 257 235 194 201 201 198 192 192 196 192 190 183 175 171 176 172 173 181
299 295 227 214 227 212 201 200 207 222 226 245 230 219 239 237 260 273 340 277 291 289 37 30 24 13 348 266 223 208 202 202 195 194 197 193 194 190 182 180 178 181 179 179
299 280 336 333 281 239 201 223 231 285 282 263 259 240 269 279 257 283 32 44 63 52 44 39 31 30 20 8 240 217 209 210 197 197 197 196 196 195 187 181 181 180 176 174
298 304 288 321 269 248 254 314 223 224 234 237 245 259 265 233 245 70 39 44 45 38 36 37 34 32 32 29 15 280 218 200 208 198 200 200 197 199 189 182 184 180 175 170
305 311 300 295 223 248 203 238 246 260 241 248 248 239 10 21 40 76 63 49 39 40 36 38 37 36 34 34 33 32 16 214 194 200 209 205 201 201 193 188 187 179 170 169
336 278 315 293 296 334 314 277 243 251 236 241 258 259 69 82 76 84 78 64 52 47 44 41 40 40 37 32 33 32 24 20 328 220 213 205 201 199 202 195 190 180 177 175
334 342 322 328 148 29 11 324 328 312 272 274 247 242 114 111 95 74 76 62 50 40 40 38 36 36 35 32 32 32 29 21 1 333 228 213 213 197 202 197 194 183 179 177
331 295 298 278 295 297 297 300 299 295 281 266 252 265 190 157 129 96 74 65 51 41 38 33 33 30 30 28 28 26 26 21 12 21 337 235 217 213 207 201 197 188 184 178
315 294 289 280 287 291 276 284 298 288 281 251 260 264 274 191 114 75 64 62 53 37 33 31 27 23 24 23 22 24 24 20 20 29 30 17 351 262 228 212 198 191 194 188
294 286 295 287 286 284 282 279 283 278 277 262 260 259 83 66 68 45 41 46 53 39 28 23 23 24 22 18 14 21 20 18 23 30 31 22 12 11 341 265 217 200 196 191
292 281 295 286 297 298 280 300 315 317 18 328 337 356 341 96 58 35 24 33 40 37 29 21 17 18 20 14 10 20 17 16 25 26 25 20 12 14 5 349 317 233 208 198
299 299 291 295 302 270 66 26 35 27 45 15 5 356 9 58 63 49 32 30 32 29 28 21 14 17 19 12 8 15 19 20 22 24 20 15 5 1 358 359 353 340 315 216
320 324 307 285 310 297 69 11 344 331 53 28 3 1 346 127 121 57 38 31 29 26 24 21 16 19 20 15 6 13 18 17 15 15 10 2 359 350 357 359 350 339 306 278
330 314 284 301 320 307 30 353 326 311 177 27 13 8 359 338 320 42 20 33 36 26 16 8 9 19 20 14 9 15 20 15 11 1 354 350 355 344 346 351 347 337 317 275
322 307 308 307 312 277 9 349 329 318 17 27 20 12 17 31 30 3 6 35 23 27 24 10 12 16 12 7 5 13 17 16 359 348 347 352 350 340 343 342 345 344 336 317
291 294 286 306 297 269 9 343 342 320 322 320 354 19 9 17 6 357 358 0 8 7 4 12 10 13 12 5 1 5 14 357 348 345 355 349 347 341 337 341 342 346 345 334
275 266 304 282 276 310 311 291 313 321 305 353 324 8 353 334 344 341 340 348 347 354 355 7 360 359 4 14 5 355 354 351 344 346 349 347 340 343 338 335 344 349 345 337
266 266 250 267 263 278 300 235 285 308 319 334 348 344 340 328 325 323 326 333 334 343 345 352 345 349 343 4 359 352 346 347 340 339 339 336 340 336 338 328 342 342 338 334
269 287 259 260 272 275 241 238 247 237 221 270 301 321 325 323 313 320 319 321 325 326 330 337 330 328 330 335 338 348 347 345 337 331 328 330 333 329 325 321 319 322 303 306
258 258 255 261 271 267 280 116 223 271 265 274 294 297 298 303 305 313 306 312 314 314 321 320 318 319 318 326 325 334 342 334 326 320 322 324 316 320 313 317 314 311 306 314